Location: Unspecified
(29.9800°N, 0.0000°E)
Time: 02:41:04
(UTC+00:00)

AO-73 - Visible Passes

Search period start: 04 April 2026 00:00
Search period end: 14 April 2026 00:00
Orbit: 515 x 568 km, 97.8° (Epoch: 29 March)

Date Brightness Start Highest point End Pass type
(mag) Time Alt. Az. Time Alt. Az. Time Alt. Az.
4 Apr ? 03:27:17 10° NNE 03:29:07 26° NNE 03:29:07 26° NNE visible
5 Apr ? 03:20:21 10° NNE 03:22:11 25° NE 03:22:11 25° NE visible
6 Apr ? 03:13:26 10° NNE 03:15:13 23° NE 03:15:13 23° NE visible
6 Apr ? 04:49:57 10° NW 04:50:45 11° WNW 04:50:45 11° WNW visible
7 Apr ? 03:06:34 10° NE 03:08:14 20° ENE 03:08:14 20° ENE visible
7 Apr ? 04:42:05 10° NW 04:43:46 14° WNW 04:43:46 14° WNW visible
8 Apr ? 02:59:43 10° NE 03:01:14 18° ENE 03:01:14 18° ENE visible
8 Apr ? 04:34:32 10° NNW 04:36:46 17° WNW 04:36:46 17° WNW visible
9 Apr ? 02:52:58 10° NE 02:54:12 15° ENE 02:54:12 15° ENE visible
9 Apr ? 04:27:05 10° NNW 04:29:45 21° WNW 04:29:45 21° WNW visible
10 Apr ? 02:46:19 10° ENE 02:47:10 13° ENE 02:47:10 13° ENE visible
10 Apr ? 04:19:42 10° NNW 04:22:42 26° WNW 04:22:42 26° WNW visible
11 Apr ? 02:39:57 10° ENE 02:40:07 10° ENE 02:40:07 10° ENE visible
11 Apr ? 04:12:22 10° N 04:15:38 32° WNW 04:15:38 32° WNW visible
12 Apr ? 04:05:04 10° N 04:08:33 41° WNW 04:08:33 41° WNW visible
13 Apr ? 03:57:47 10° N 04:01:27 52° WNW 04:01:27 52° WNW visible
